Regional Weather Roundup
Issued by NWS

Home | Current Version | Previous Version | Text Only | Print | Product List | Glossary Off
Versions: 1 2 3 4 5 6 7 8 9 10 11 12 13 14 15 16 17 18 19 20 21 22 23 24 25 26 27 28 29 30 31 32 33 34 35 36 37 38 39 40 41 42 43 44 45 46 47 48 49 50

000
ASUS43 KOAX 200510
RWRNE

WEATHER ROUNDUP FOR NEBRASKA
NATIONAL WEATHER SERVICE OMAHA NE
1100 PM CST FRI DEC 19 2014

NOTES: SATELLITE DATA IS BEING USED TO AUGMENT CLOUD COVER ABOVE
       12000 FEET.
       "FAIR" INDICATES FEW OR NO CLOUDS BELOW 12,000 FEET WITH NO
       SIGNIFICANT WEATHER AND/OR OBSTRUCTIONS TO VISIBILITY.

  * THESE STATIONS DO NOT REPORT WEATHER SUCH AS RAIN...SNOW OR FOG.

NEZ001>004-019>022-054>056-200600-
NEBRASKA PANHANDLE

CITY           SKY/WX    TMP DP  RH WIND       PRES   REMARKS
SCOTTSBLUFF    CLEAR     22  16  78 CALM      29.99R
ALLIANCE       PTCLDY    15  12  88 S3        29.97F
CHADRON        PTCLDY    16  13  88 SW5       29.97S WCI   9
KIMBALL        CLEAR     24  19  81 W6        29.98S WCI  16
SIDNEY         PTCLDY    18  13  80 W5        30.00F WCI  11
$$

NEZ057>060-069>072-079>082-200600-
SOUTHWEST NEBRASKA

CITY           SKY/WX    TMP DP  RH WIND       PRES   REMARKS
NORTH PLATTE   CLEAR     19  17  92 NW6       30.02S FOG     WCI  11
IMPERIAL       CLEAR     30  21  69 W12       30.03S WCI  20
LEXINGTON      CLEAR     22  21  95 NW6       30.02S FOG     WCI  15
MCCOOK         CLEAR     27  22  81 W9        30.04S WCI  18
OGALLALA       CLEAR     21  19  93 W6        30.02S WCI  13
$$

NEZ005>010-023>029-035>040-094-200600-
NORTH CENTRAL NEBRASKA

CITY           SKY/WX    TMP DP  RH WIND       PRES   REMARKS
VALENTINE      CLEAR     17  15  92 W3        29.99S
AINSWORTH      CLEAR     20  18  90 W7        29.98S WCI  11
BROKEN BOW     CLEAR     28  24  85 NW7       29.99S WCI  21
O`NEILL        FOG       27  27 100 S5        30.01S VSB 1/2 WCI  22
THEDFORD       CLEAR     23  21  93 CALM      29.99F
$$

NEZ041-046>049-061>064-073>077-083>087-200600-
SOUTH CENTRAL NEBRASKA

CITY           SKY/WX    TMP DP  RH WIND       PRES   REMARKS
GRAND ISLAND   FOG       32  32 100 S10       30.05S VSB 1/2 WCI  24
AURORA         FOG       33  33 100 S8        30.05S VSB 1/2 WCI  25
HASTINGS       FOG       32  31  96 S8        30.03F VSB 1/4 WCI  25
HEBRON         CLOUDY    33  32  96 S6        30.10S FOG     WCI  27
HOLDREGE       CLEAR     27  25  92 CALM      30.02S
KEARNEY *      CLOUDY    27  25  93 SW3       30.03S VSB<1/4
YORK           FOG       32  32 100 S12       30.07S VSB 1/2 WCI  23
$$

NEZ011>018-030>034-042>045-200600-
NORTHEAST NEBRASKA

CITY           SKY/WX    TMP DP  RH WIND       PRES   REMARKS
NORFOLK        CLOUDY    34  30  85 S7        30.05S WCI  28
ALBION         CLOUDY    32  31  94 SW8       30.05R FOG     WCI  25
BLAIR          CLOUDY    32  30  92 SE7       30.12S FOG     WCI  26
COLUMBUS *     CLOUDY    34  28  80 S9        30.09S WCI  26
FREMONT        CLOUDY    33  32  96 SE10      30.11F FOG     WCI  25
TEKAMAH        CLOUDY    32  30  92 SE9       30.13F WCI  24
WAYNE          CLOUDY    33  30  89 S7        30.08S WCI  27
$$

NEZ050>053-065>068-078-088>093-200600-
SOUTHEAST NEBRASKA

CITY           SKY/WX    TMP DP  RH WIND       PRES   REMARKS
LINCOLN        CLOUDY    33  30  88 S8        30.13R WCI  26
OMAHA EPPLEY   CLOUDY    32  29  88 SE10      30.16R WCI  24
BEATRICE       CLOUDY    32  30  93 SE7       30.12S WCI  26
FALLS CITY     CLOUDY    30  27  88 S8        30.18F WCI  22
NEBRASKA CITY  CLOUDY    31  30  99 S9        30.15S WCI  23
PLATTSMOUTH    CLOUDY    31  28  91 SE8       30.15R WCI  23
$$

NEZ044-045-051>053-067-200600-
OMAHA AREA

CITY           SKY/WX    TMP DP  RH WIND       PRES   REMARKS
OMAHA EPPLEY   CLOUDY    32  29  88 SE10      30.16R WCI  24
BLAIR          CLOUDY    32  30  92 SE7       30.12S FOG     WCI  26
FREMONT        CLOUDY    33  32  96 SE10      30.11F FOG     WCI  25
MILLARD        CLOUDY    32  30  92 SE8       30.14S WCI  25
OFFUTT AFB     CLOUDY    31  29  91 SE9       30.14S WCI  23
PLATTSMOUTH    CLOUDY    31  28  91 SE8       30.15R WCI  23
WAHOO          CLOUDY    33  30  90 SE6       30.11F FOG     WCI  27
$$



USA.gov is the U.S. government's official web portal to all federal, state and local government web resources and services.